Time,TemperatureF,DewpointF,PressureIn,WindDirection,WindDirectionDegrees,WindSpeedMPH,WindSpeedGustMPH,Humidity,HourlyPrecipIn,Conditions,Clouds,dailyrainin,SoftwareType,DateUTC
2013-01-19 00:00:00,42.1,25.8,30.13,SSW,209,0.0,10.0,52,0.00,,CLR,0.00,VWS V14.01,2013-01-19 06:00:00,
2013-01-19 00:02:00,42.2,25.9,30.13,South,175,3.0,5.0,52,0.00,,FEW047,0.00,VWS V14.01,2013-01-19 06:02:00,
2013-01-19 00:07:00,42.2,25.9,30.13,South,188,3.0,5.0,52,0.00,,FEW047,0.00,VWS V14.01,2013-01-19 06:07:00,
2013-01-19 00:12:00,42.2,25.9,30.13,SW,223,1.0,6.0,52,0.00,,FEW047,0.00,VWS V14.01,2013-01-19 06:12:00,
2013-01-19 00:17:00,42.2,25.9,30.13,South,181,4.0,6.0,52,0.00,,FEW047,0.00,VWS V14.01,2013-01-19 06:17:00,
2013-01-19 00:23:00,42.2,25.9,30.13,SSW,205,2.0,6.0,52,0.00,,FEW047,0.00,VWS V14.01,2013-01-19 06:23:00,
2013-01-19 00:28:00,42.2,25.9,30.13,SSW,199,1.0,6.0,52,0.00,,FEW047,0.00,VWS V14.01,2013-01-19 06:28:00,
2013-01-19 00:30:00,41.7,25.9,30.13,SSW,211,0.0,7.0,53,0.00,,CLR,0.00,VWS V14.01,2013-01-19 06:30:00,
2013-01-19 00:33:00,42.1,25.8,30.13,South,191,3.0,10.0,52,0.00,,FEW047,0.00,VWS V14.01,2013-01-19 06:33:00,
2013-01-19 00:38:00,42.2,25.9,30.13,SSW,198,2.0,10.0,52,0.00,,FEW047,0.00,VWS V14.01,2013-01-19 06:38:00,
2013-01-19 00:43:00,42.1,25.8,30.13,South,173,3.0,10.0,52,0.00,,FEW047,0.00,VWS V14.01,2013-01-19 06:43:00,
2013-01-19 00:48:00,42.2,25.9,30.12,SSW,198,0.0,10.0,52,0.00,,FEW047,0.00,VWS V14.01,2013-01-19 06:48:00,
2013-01-19 00:53:00,42.2,25.9,30.12,South,169,2.0,10.0,52,0.00,,FEW047,0.00,VWS V14.01,2013-01-19 06:53:00,
2013-01-19 00:58:00,42.2,25.9,30.13,South,176,0.0,10.0,52,0.00,,FEW047,0.00,VWS V14.01,2013-01-19 06:58:00,
2013-01-19 01:00:00,41.0,25.6,30.13,SSW,192,1.0,8.0,54,0.00,,CLR,0.00,VWS V14.01,2013-01-19 07:00:00,
2013-01-19 01:03:00,42.0,25.7,30.13,SSW,212,1.0,5.0,52,0.00,,FEW047,0.00,VWS V14.01,2013-01-19 07:03:00,
2013-01-19 01:08:00,41.7,25.9,30.13,SSW,196,0.0,5.0,53,0.00,,FEW047,0.00,VWS V14.01,2013-01-19 07:08:00,
2013-01-19 01:14:00,41.6,25.8,30.12,SSW,192,2.0,6.0,53,0.00,,FEW047,0.00,VWS V14.01,2013-01-19 07:14:00,
2013-01-19 01:19:00,41.7,25.9,30.13,SW,219,2.0,7.0,53,0.00,,FEW047,0.00,VWS V14.01,2013-01-19 07:19:00,
2013-01-19 01:24:00,41.7,25.9,30.12,SW,224,1.0,7.0,53,0.00,,FEW047,0.00,VWS V14.01,2013-01-19 07:24:00,
2013-01-19 01:29:00,41.7,25.9,30.13,SSW,212,1.0,7.0,53,0.00,,FEW047,0.00,VWS V14.01,2013-01-19 07:29:00,
2013-01-19 01:30:00,39.4,25.0,30.13,SSW,196,0.0,4.0,56,0.00,,CLR,0.00,VWS V14.01,2013-01-19 07:30:00,
2013-01-19 01:34:00,41.7,25.9,30.13,SSW,207,1.0,6.0,53,0.00,,FEW047,0.00,VWS V14.01,2013-01-19 07:34:00,
2013-01-19 01:39:00,41.8,25.9,30.13,SSW,202,1.0,7.0,53,0.00,,FEW047,0.00,VWS V14.01,2013-01-19 07:39:00,
2013-01-19 01:44:00,41.7,25.4,30.13,SSW,194,4.0,7.0,52,0.00,,FEW047,0.00,VWS V14.01,2013-01-19 07:44:00,
2013-01-19 01:50:00,41.5,25.7,30.13,SW,217,2.0,7.0,53,0.00,,FEW047,0.00,VWS V14.01,2013-01-19 07:50:00,
2013-01-19 01:55:00,41.2,25.8,30.13,SSW,198,0.0,7.0,54,0.00,,FEW047,0.00,VWS V14.01,2013-01-19 07:55:00,
2013-01-19 02:00:00,41.0,25.6,30.13,SSW,192,1.0,8.0,54,0.00,,FEW047,0.00,VWS V14.01,2013-01-19 08:00:00,
2013-01-19 02:05:00,40.9,25.5,30.13,SSW,194,1.0,4.0,54,0.00,,FEW047,0.00,VWS V14.01,2013-01-19 08:05:00,
2013-01-19 02:10:00,40.7,25.4,30.13,SSW,198,2.0,4.0,54,0.00,,FEW047,0.00,VWS V14.01,2013-01-19 08:10:00,
2013-01-19 02:15:00,40.4,25.5,30.13,SSW,198,0.0,4.0,55,0.00,,FEW047,0.00,VWS V14.01,2013-01-19 08:15:00,
2013-01-19 02:20:00,40.0,25.6,30.13,SSW,196,0.0,4.0,56,0.00,,FEW047,0.00,VWS V14.01,2013-01-19 08:20:00,
2013-01-19 02:25:00,39.6,25.2,30.13,SSW,196,0.0,4.0,56,0.00,,FEW047,0.00,VWS V14.01,2013-01-19 08:25:00,
2013-01-19 02:30:00,34.1,24.7,30.11,SSW,196,1.0,1.0,68,0.00,,CLR,0.00,VWS V14.01,2013-01-19 08:30:00,
2013-01-19 02:31:00,39.3,24.9,30.13,SSW,196,0.0,0.0,56,0.00,,FEW047,0.00,VWS V14.01,2013-01-19 08:31:00,
2013-01-19 02:36:00,39.0,25.1,30.13,SSW,196,0.0,0.0,57,0.00,,FEW047,0.00,VWS V14.01,2013-01-19 08:36:00,
2013-01-19 02:41:00,38.6,25.1,30.12,SSW,196,1.0,1.0,58,0.00,,FEW047,0.00,VWS V14.01,2013-01-19 08:41:00,
2013-01-19 02:47:00,38.1,25.5,30.12,SSW,196,0.0,1.0,60,0.00,,FEW047,0.00,VWS V14.01,2013-01-19 08:47:00,
2013-01-19 02:52:00,37.6,25.0,30.12,SSW,196,0.0,1.0,60,0.00,,FEW047,0.00,VWS V14.01,2013-01-19 08:52:00,
2013-01-19 02:57:00,37.1,25.3,30.12,SSW,196,0.0,1.0,62,0.00,,FEW047,0.00,VWS V14.01,2013-01-19 08:57:00,
2013-01-19 03:00:00,34.0,24.9,30.10,South,177,0.0,3.0,69,0.00,,CLR,0.00,VWS V14.01,2013-01-19 09:00:00,
2013-01-19 03:02:00,36.6,25.6,30.12,SSW,196,0.0,0.0,64,0.00,,FEW047,0.00,VWS V14.01,2013-01-19 09:02:00,
2013-01-19 03:07:00,36.1,25.5,30.12,SSW,196,0.0,0.0,65,0.00,,FEW047,0.00,VWS V14.01,2013-01-19 09:07:00,
2013-01-19 03:12:00,35.6,25.4,30.12,SSW,196,0.0,1.0,66,0.00,,FEW047,0.00,VWS V14.01,2013-01-19 09:12:00,
2013-01-19 03:17:00,35.1,25.3,30.11,SSW,196,0.0,1.0,67,0.00,,FEW047,0.00,VWS V14.01,2013-01-19 09:17:00,
2013-01-19 03:22:00,34.6,24.8,30.11,SSW,196,0.0,1.0,67,0.00,,FEW047,0.00,VWS V14.01,2013-01-19 09:22:00,
2013-01-19 03:28:00,34.3,24.9,30.11,SSW,196,0.0,1.0,68,0.00,,FEW047,0.00,VWS V14.01,2013-01-19 09:28:00,
2013-01-19 03:30:00,34.8,25.7,30.09,South,186,0.0,4.0,69,0.00,,CLR,0.00,VWS V14.01,2013-01-19 09:30:00,
2013-01-19 03:33:00,34.1,25.0,30.10,SSW,196,0.0,1.0,69,0.00,,FEW047,0.00,VWS V14.01,2013-01-19 09:33:00,
2013-01-19 03:38:00,34.0,25.3,30.10,SSW,196,0.0,1.0,70,0.00,,FEW047,0.00,VWS V14.01,2013-01-19 09:38:00,
2013-01-19 03:43:00,34.0,25.3,30.10,SSW,196,1.0,2.0,70,0.00,,FEW047,0.00,VWS V14.01,2013-01-19 09:43:00,
2013-01-19 03:48:00,34.1,25.4,30.10,South,184,2.0,3.0,70,0.00,,FEW047,0.00,VWS V14.01,2013-01-19 09:48:00,
2013-01-19 03:53:00,34.0,25.3,30.10,South,178,0.0,3.0,70,0.00,,FEW047,0.00,VWS V14.01,2013-01-19 09:53:00,
2013-01-19 03:58:00,34.0,25.3,30.10,South,177,0.0,3.0,70,0.00,,FEW047,0.00,VWS V14.01,2013-01-19 09:58:00,
2013-01-19 04:00:00,35.9,25.7,30.08,SSW,196,1.0,4.0,66,0.00,,CLR,0.00,VWS V14.01,2013-01-19 10:00:00,
2013-01-19 04:04:00,34.1,25.0,30.10,South,178,1.0,1.0,69,0.00,,FEW047,0.00,VWS V14.01,2013-01-19 10:04:00,
2013-01-19 04:09:00,34.2,25.1,30.10,South,189,0.0,3.0,69,0.00,,FEW047,0.00,VWS V14.01,2013-01-19 10:09:00,
2013-01-19 04:14:00,34.3,25.2,30.09,South,189,1.0,3.0,69,0.00,,FEW047,0.00,VWS V14.01,2013-01-19 10:14:00,
2013-01-19 04:19:00,34.4,25.3,30.09,South,188,1.0,3.0,69,0.00,,FEW047,0.00,VWS V14.01,2013-01-19 10:19:00,
2013-01-19 04:24:00,34.6,25.5,30.09,SSW,194,3.0,3.0,69,0.00,,FEW047,0.00,VWS V14.01,2013-01-19 10:24:00,
2013-01-19 04:29:00,34.8,25.7,30.09,SSW,196,2.0,4.0,69,0.00,,FEW047,0.00,VWS V14.01,2013-01-19 10:29:00,
2013-01-19 04:30:00,36.8,25.8,30.08,SSW,192,4.0,4.0,64,0.00,,CLR,0.00,VWS V14.01,2013-01-19 10:30:00,
2013-01-19 04:34:00,35.0,25.5,30.09,SSW,202,2.0,3.0,68,0.00,,FEW047,0.00,VWS V14.01,2013-01-19 10:34:00,
2013-01-19 04:39:00,35.1,25.3,30.09,SSW,205,1.0,3.0,67,0.00,,FEW047,0.00,VWS V14.01,2013-01-19 10:39:00,
2013-01-19 04:44:00,35.3,25.5,30.09,South,191,1.0,3.0,67,0.00,,FEW047,0.00,VWS V14.01,2013-01-19 10:44:00,
2013-01-19 04:49:00,35.5,25.6,30.09,SSW,193,1.0,3.0,67,0.00,,FEW047,0.00,VWS V14.01,2013-01-19 10:49:00,
2013-01-19 04:55:00,35.7,25.5,30.08,SSW,192,3.0,4.0,66,0.00,,FEW047,0.00,VWS V14.01,2013-01-19 10:55:00,
2013-01-19 05:00:00,35.9,25.7,30.08,SSW,196,2.0,4.0,66,0.00,,FEW047,0.00,VWS V14.01,2013-01-19 11:00:00,
2013-01-19 05:05:00,36.0,25.4,30.08,SSW,200,0.0,4.0,65,0.00,,FEW047,0.00,VWS V14.01,2013-01-19 11:05:00,
2013-01-19 05:10:00,36.1,25.5,30.09,SSW,196,1.0,4.0,65,0.00,,FEW047,0.00,VWS V14.01,2013-01-19 11:10:00,
2013-01-19 05:30:00,35.5,24.9,30.08,SSW,203,0.0,4.0,65,0.00,,CLR,0.00,VWS V14.01,2013-01-19 11:30:00,
2013-01-19 06:00:00,35.4,25.5,30.08,SSW,194,2.0,4.0,67,0.00,,CLR,0.00,VWS V14.01,2013-01-19 12:00:00,
2013-01-19 06:30:00,36.6,26.0,30.08,SSW,196,2.0,5.0,65,0.00,,CLR,0.00,VWS V14.01,2013-01-19 12:30:00,
2013-01-19 06:47:00,35.1,25.3,30.08,SSW,196,1.0,3.0,67,0.00,,FEW047,0.00,VWS V14.01,2013-01-19 12:47:00,
2013-01-19 06:48:00,35.1,25.3,30.08,SSW,196,1.0,3.0,67,0.00,,FEW047,0.00,VWS V14.01,2013-01-19 12:48:00,
2013-01-19 06:49:00,35.2,25.4,30.08,SSW,196,0.0,3.0,67,0.00,,FEW047,0.00,VWS V14.01,2013-01-19 12:49:00,
2013-01-19 06:54:00,35.2,25.4,30.08,South,191,1.0,4.0,67,0.00,,FEW047,0.00,VWS V14.01,2013-01-19 12:54:00,
2013-01-19 06:59:00,35.3,25.5,30.08,South,189,2.0,4.0,67,0.00,,FEW047,0.00,VWS V14.01,2013-01-19 12:59:00,
2013-01-19 07:00:00,37.9,26.8,30.08,South,191,1.0,5.0,64,0.00,,CLR,0.00,VWS V14.01,2013-01-19 13:00:00,
2013-01-19 07:04:00,35.7,25.5,30.08,SSW,196,3.0,4.0,66,0.00,,FEW047,0.00,VWS V14.01,2013-01-19 13:04:00,
2013-01-19 07:10:00,36.1,25.5,30.08,SSW,198,2.0,4.0,65,0.00,,FEW047,0.00,VWS V14.01,2013-01-19 13:10:00,
2013-01-19 07:15:00,36.2,25.6,30.08,SSW,194,4.0,5.0,65,0.00,,FEW047,0.00,VWS V14.01,2013-01-19 13:15:00,
2013-01-19 07:20:00,36.4,26.1,30.08,SSW,209,0.0,5.0,66,0.00,,FEW047,0.00,VWS V14.01,2013-01-19 13:20:00,
2013-01-19 07:25:00,36.5,26.2,30.08,SSW,200,1.0,5.0,66,0.00,,FEW047,0.00,VWS V14.01,2013-01-19 13:25:00,
2013-01-19 07:30:00,36.6,26.0,30.08,SSW,196,0.0,2.0,65,0.00,,FEW047,0.00,VWS V14.01,2013-01-19 13:30:00,
2013-01-19 07:35:00,36.8,26.1,30.08,SSW,196,0.0,2.0,65,0.00,,FEW047,0.00,VWS V14.01,2013-01-19 13:35:00,
2013-01-19 07:40:00,36.7,26.1,30.08,SSW,196,0.0,2.0,65,0.00,,FEW047,0.00,VWS V14.01,2013-01-19 13:40:00,
2013-01-19 07:46:00,36.6,26.0,30.08,SSW,195,2.0,3.0,65,0.00,,FEW047,0.00,VWS V14.01,2013-01-19 13:46:00,
2013-01-19 07:51:00,36.6,26.3,30.08,SSW,193,1.0,4.0,66,0.00,,FEW047,0.00,VWS V14.01,2013-01-19 13:51:00,
2013-01-19 07:56:00,37.2,26.9,30.08,South,186,2.0,5.0,66,0.00,,FEW047,0.00,VWS V14.01,2013-01-19 13:56:00,
2013-01-19 08:00:00,44.8,30.1,30.09,SSE,158,1.0,7.0,56,0.00,,CLR,0.00,VWS V14.01,2013-01-19 14:00:00,
2013-01-19 08:01:00,38.2,27.1,30.08,South,184,1.0,2.0,64,0.00,,FEW047,0.00,VWS V14.01,2013-01-19 14:01:00,
2013-01-19 08:06:00,38.9,27.4,30.08,South,179,1.0,4.0,63,0.00,,FEW047,0.00,VWS V14.01,2013-01-19 14:06:00,
2013-01-19 08:11:00,39.2,27.3,30.08,South,184,1.0,4.0,62,0.00,,FEW047,0.00,VWS V14.01,2013-01-19 14:11:00,
2013-01-19 08:16:00,40.3,27.9,30.08,South,182,2.0,4.0,61,0.00,,FEW047,0.00,VWS V14.01,2013-01-19 14:16:00,
2013-01-19 08:22:00,40.8,28.0,30.08,South,184,0.0,4.0,60,0.00,,FEW047,0.00,VWS V14.01,2013-01-19 14:22:00,
2013-01-19 08:27:00,41.2,28.4,30.08,South,184,0.0,4.0,60,0.00,,FEW047,0.00,VWS V14.01,2013-01-19 14:27:00,
2013-01-19 08:30:00,47.9,31.1,30.09,SW,236,2.0,6.0,52,0.00,,CLR,0.00,VWS V14.01,2013-01-19 14:30:00,
2013-01-19 08:32:00,41.7,28.9,30.08,South,186,0.0,3.0,60,0.00,,FEW047,0.00,VWS V14.01,2013-01-19 14:32:00,
2013-01-19 08:37:00,42.2,28.9,30.08,WSW,246,0.0,7.0,59,0.00,,FEW047,0.00,VWS V14.01,2013-01-19 14:37:00,
2013-01-19 08:42:00,42.9,29.6,30.08,SSW,211,1.0,7.0,59,0.00,,FEW047,0.00,VWS V14.01,2013-01-19 14:42:00,
2013-01-19 08:47:00,43.5,29.7,30.09,SSW,206,0.0,7.0,58,0.00,,FEW047,0.00,VWS V14.01,2013-01-19 14:47:00,
2013-01-19 08:52:00,44.1,29.9,30.09,SSW,208,2.0,7.0,57,0.00,,FEW047,0.00,VWS V14.01,2013-01-19 14:52:00,
2013-01-19 08:57:00,44.5,29.4,30.09,SSW,193,0.0,7.0,55,0.00,,FEW047,0.00,VWS V14.01,2013-01-19 14:57:00,
2013-01-19 09:00:00,51.1,32.1,30.10,WSW,238,3.0,9.0,48,0.00,,CLR,0.00,VWS V14.01,2013-01-19 15:00:00,
2013-01-19 09:02:00,45.0,30.3,30.09,SSW,194,2.0,3.0,56,0.00,,FEW047,0.00,VWS V14.01,2013-01-19 15:02:00,
2013-01-19 09:07:00,45.6,29.9,30.09,SSW,192,0.0,4.0,54,0.00,,FEW047,0.00,VWS V14.01,2013-01-19 15:07:00,
2013-01-19 09:13:00,46.1,30.4,30.09,SW,224,1.0,6.0,54,0.00,,FEW047,0.00,VWS V14.01,2013-01-19 15:13:00,
2013-01-19 09:18:00,46.6,30.4,30.09,SW,218,1.0,6.0,53,0.00,,FEW047,0.00,VWS V14.01,2013-01-19 15:18:00,
2013-01-19 09:23:00,47.2,30.5,30.09,South,180,1.0,6.0,52,0.00,,FEW047,0.00,VWS V14.01,2013-01-19 15:23:00,
2013-01-19 09:28:00,47.8,31.0,30.09,South,186,4.0,6.0,52,0.00,,FEW047,0.00,VWS V14.01,2013-01-19 15:28:00,
2013-01-19 09:30:00,53.7,33.4,30.08,WSW,244,2.0,12.0,46,0.00,,CLR,0.00,VWS V14.01,2013-01-19 15:30:00,
2013-01-19 09:33:00,48.2,31.4,30.09,SSW,194,1.0,4.0,52,0.00,,FEW047,0.00,VWS V14.01,2013-01-19 15:33:00,
2013-01-19 09:38:00,48.6,31.8,30.09,SSW,193,4.0,4.0,52,0.00,,FEW047,0.00,VWS V14.01,2013-01-19 15:38:00,
2013-01-19 09:43:00,49.2,31.9,30.10,SW,226,1.0,4.0,51,0.00,,FEW047,0.00,VWS V14.01,2013-01-19 15:43:00,
2013-01-19 09:48:00,50.0,32.6,30.09,WSW,258,9.0,9.0,51,0.00,,FEW047,0.00,VWS V14.01,2013-01-19 15:48:00,
2013-01-19 09:53:00,50.5,32.1,30.09,WSW,239,1.0,9.0,49,0.00,,FEW047,0.00,VWS V14.01,2013-01-19 15:53:00,
2013-01-19 09:59:00,51.1,32.1,30.10,SSW,197,6.0,9.0,48,0.00,,FEW047,0.00,VWS V14.01,2013-01-19 15:59:00,
2013-01-19 10:00:00,56.3,34.7,30.07,WSW,256,4.0,15.0,44,0.00,,CLR,0.00,VWS V14.01,2013-01-19 16:00:00,
2013-01-19 10:04:00,51.5,33.0,30.09,SSW,194,4.0,12.0,49,0.00,,FEW047,0.00,VWS V14.01,2013-01-19 16:04:00,
2013-01-19 10:09:00,51.9,32.8,30.09,South,190,6.0,12.0,48,0.00,,FEW047,0.00,VWS V14.01,2013-01-19 16:09:00,
2013-01-19 10:14:00,52.5,32.9,30.09,SSW,194,5.0,12.0,47,0.00,,FEW047,0.00,VWS V14.01,2013-01-19 16:14:00,
2013-01-19 10:19:00,52.8,33.2,30.09,South,186,4.0,12.0,47,0.00,,FEW047,0.00,VWS V14.01,2013-01-19 16:19:00,
2013-01-19 10:24:00,53.2,33.0,30.08,South,176,0.0,12.0,46,0.00,,FEW047,0.00,VWS V14.01,2013-01-19 16:24:00,
2013-01-19 10:29:00,53.6,33.3,30.08,SW,227,3.0,12.0,46,0.00,,FEW047,0.00,VWS V14.01,2013-01-19 16:29:00,
2013-01-19 10:30:00,58.5,34.9,30.05,West,260,6.0,13.0,41,0.00,,CLR,0.00,VWS V14.01,2013-01-19 16:30:00,
2013-01-19 10:34:00,54.1,33.2,30.08,WSW,239,9.0,11.0,45,0.00,,FEW047,0.00,VWS V14.01,2013-01-19 16:34:00,
2013-01-19 10:40:00,54.3,33.4,30.08,WSW,240,5.0,11.0,45,0.00,,FEW047,0.00,VWS V14.01,2013-01-19 16:40:00,
2013-01-19 10:45:00,54.8,33.9,30.08,SSW,204,3.0,11.0,45,0.00,,FEW047,0.00,VWS V14.01,2013-01-19 16:45:00,
2013-01-19 10:50:00,55.4,34.4,30.07,WSW,254,6.0,11.0,45,0.00,,FEW047,0.00,VWS V14.01,2013-01-19 16:50:00,
2013-01-19 10:55:00,55.8,34.2,30.07,SW,221,4.0,15.0,44,0.00,,FEW047,0.00,VWS V14.01,2013-01-19 16:55:00,
2013-01-19 11:00:00,56.3,34.7,30.07,WSW,256,4.0,15.0,44,0.00,,FEW047,0.00,VWS V14.01,2013-01-19 17:00:00,
2013-01-19 11:05:00,56.6,34.4,30.07,SW,221,5.0,10.0,43,0.00,,FEW047,0.00,VWS V14.01,2013-01-19 17:05:00,
2013-01-19 11:11:00,56.9,34.1,30.06,WSW,254,3.0,13.0,42,0.00,,FEW047,0.00,VWS V14.01,2013-01-19 17:11:00,
2013-01-19 11:16:00,57.4,34.5,30.06,WSW,249,2.0,13.0,42,0.00,,FEW047,0.00,VWS V14.01,2013-01-19 17:16:00,
2013-01-19 11:21:00,57.8,34.9,30.06,West,261,3.0,13.0,42,0.00,,FEW047,0.00,VWS V14.01,2013-01-19 17:21:00,
2013-01-19 11:27:00,58.2,35.2,30.05,WSW,243,2.0,13.0,42,0.00,,FEW047,0.00,VWS V14.01,2013-01-19 17:27:00,
2013-01-19 11:30:00,62.2,36.3,30.01,WSW,238,4.0,13.0,38,0.00,,CLR,0.00,VWS V14.01,2013-01-19 17:30:00,
2013-01-19 11:32:00,58.6,35.0,30.05,SSW,205,5.0,11.0,41,0.00,,FEW047,0.00,VWS V14.01,2013-01-19 17:32:00,
2013-01-19 11:37:00,59.0,35.3,30.04,WSW,242,4.0,11.0,41,0.00,,FEW047,0.00,VWS V14.01,2013-01-19 17:37:00,
2013-01-19 11:42:00,59.6,35.3,30.04,WSW,238,5.0,11.0,40,0.00,,FEW047,0.00,VWS V14.01,2013-01-19 17:42:00,
2013-01-19 11:47:00,60.2,35.8,30.04,West,264,5.0,14.0,40,0.00,,FEW047,0.00,VWS V14.01,2013-01-19 17:47:00,
2013-01-19 11:53:00,60.4,36.0,30.03,WSW,250,4.0,14.0,40,0.00,,FEW047,0.00,VWS V14.01,2013-01-19 17:53:00,
2013-01-19 11:58:00,60.5,35.4,30.03,WNW,292,3.0,14.0,39,0.00,,FEW047,0.00,VWS V14.01,2013-01-19 17:58:00,
2013-01-19 12:00:00,62.8,36.2,30.00,SSW,211,5.0,16.0,37,0.00,,CLR,0.00,VWS V14.01,2013-01-19 18:00:00,
2013-01-19 12:03:00,60.8,36.3,30.03,West,270,2.0,11.0,40,0.00,,FEW047,0.00,VWS V14.01,2013-01-19 18:03:00,
2013-01-19 12:08:00,61.3,36.8,30.02,SSW,200,2.0,11.0,40,0.00,,FEW047,0.00,VWS V14.01,2013-01-19 18:08:00,
2013-01-19 12:13:00,61.6,35.8,30.02,SW,224,4.0,13.0,38,0.00,,FEW047,0.00,VWS V14.01,2013-01-19 18:13:00,
2013-01-19 12:18:00,61.9,36.0,30.02,SW,236,5.0,13.0,38,0.00,,FEW047,0.00,VWS V14.01,2013-01-19 18:18:00,
2013-01-19 12:23:00,62.2,36.3,30.01,WSW,238,4.0,13.0,38,0.00,,FEW047,0.00,VWS V14.01,2013-01-19 18:23:00,
2013-01-19 12:28:00,62.2,35.6,30.01,WSW,244,1.0,13.0,37,0.00,,FEW047,0.00,VWS V14.01,2013-01-19 18:28:00,
2013-01-19 12:30:00,64.0,36.5,29.99,WSW,256,7.0,15.0,36,0.00,,CLR,0.00,VWS V14.01,2013-01-19 18:30:00,
2013-01-19 12:34:00,62.5,37.2,30.01,West,263,4.0,8.0,39,0.00,,FEW047,0.00,VWS V14.01,2013-01-19 18:34:00,
2013-01-19 12:39:00,62.8,36.2,30.01,NW,313,4.0,10.0,37,0.00,,FEW047,0.00,VWS V14.01,2013-01-19 18:39:00,
2013-01-19 12:44:00,62.8,36.2,30.01,SSW,198,7.0,14.0,37,0.00,,FEW047,0.00,VWS V14.01,2013-01-19 18:44:00,
2013-01-19 12:49:00,62.8,36.2,30.00,West,262,5.0,14.0,37,0.00,,FEW047,0.00,VWS V14.01,2013-01-19 18:49:00,
2013-01-19 12:54:00,62.8,36.2,30.00,WSW,244,5.0,14.0,37,0.00,,FEW047,0.00,VWS V14.01,2013-01-19 18:54:00,
2013-01-19 13:00:00,62.8,36.2,30.00,SW,227,4.0,16.0,37,0.00,,FEW047,0.00,VWS V14.01,2013-01-19 19:00:00,
2013-01-19 13:05:00,62.9,36.2,30.00,SSW,205,7.0,10.0,37,0.00,,FEW047,0.00,VWS V14.01,2013-01-19 19:05:00,
2013-01-19 13:10:00,63.1,36.4,30.00,West,281,5.0,10.0,37,0.00,,FEW047,0.00,VWS V14.01,2013-01-19 19:10:00,
2013-01-19 13:15:00,63.1,35.7,29.99,West,267,4.0,15.0,36,0.00,,FEW047,0.00,VWS V14.01,2013-01-19 19:15:00,
2013-01-19 13:20:00,63.4,36.7,29.99,SW,227,5.0,15.0,37,0.00,,FEW047,0.00,VWS V14.01,2013-01-19 19:20:00,
2013-01-19 13:27:00,63.8,37.0,29.99,SW,223,6.0,15.0,37,0.00,,FEW047,0.00,VWS V14.01,2013-01-19 19:27:00,
2013-01-19 13:30:00,64.7,35.7,29.96,SW,228,3.0,15.0,34,0.00,,CLR,0.00,VWS V14.01,2013-01-19 19:30:00,
2013-01-19 13:32:00,63.9,36.5,29.98,SSW,211,4.0,7.0,36,0.00,,FEW047,0.00,VWS V14.01,2013-01-19 19:32:00,
2013-01-19 13:37:00,63.6,35.5,29.98,SSW,202,7.0,13.0,35,0.00,,FEW047,0.00,VWS V14.01,2013-01-19 19:37:00,
2013-01-19 13:42:00,63.8,36.4,29.98,WSW,257,1.0,13.0,36,0.00,,FEW047,0.00,VWS V14.01,2013-01-19 19:42:00,
2013-01-19 13:47:00,64.1,36.6,29.98,WSW,248,4.0,13.0,36,0.00,,FEW047,0.00,VWS V14.01,2013-01-19 19:47:00,
2013-01-19 13:53:00,64.2,36.0,29.98,SW,224,7.0,13.0,35,0.00,,FEW047,0.00,VWS V14.01,2013-01-19 19:53:00,
2013-01-19 13:58:00,64.0,36.5,29.98,WSW,242,6.0,13.0,36,0.00,,FEW047,0.00,VWS V14.01,2013-01-19 19:58:00,
2013-01-19 14:00:00,65.3,36.2,29.95,SSW,211,4.0,13.0,34,0.00,,CLR,0.00,VWS V14.01,2013-01-19 20:00:00,
2013-01-19 14:04:00,64.1,35.9,29.97,SW,222,3.0,9.0,35,0.00,,FEW047,0.00,VWS V14.01,2013-01-19 20:04:00,
2013-01-19 14:09:00,64.2,36.0,29.97,SSW,211,15.0,15.0,35,0.00,,FEW047,0.00,VWS V14.01,2013-01-19 20:09:00,
2013-01-19 14:14:00,64.0,36.5,29.97,SSW,204,7.0,15.0,36,0.00,,FEW047,0.00,VWS V14.01,2013-01-19 20:14:00,
2013-01-19 14:19:00,64.2,36.7,29.96,WSW,246,2.0,15.0,36,0.00,,FEW047,0.00,VWS V14.01,2013-01-19 20:19:00,
2013-01-19 14:25:00,64.6,36.3,29.96,SW,219,4.0,15.0,35,0.00,,FEW047,0.00,VWS V14.01,2013-01-19 20:25:00,
2013-01-19 14:30:00,64.7,37.2,29.96,SW,219,5.0,15.0,36,0.00,,FEW047,0.00,VWS V14.01,2013-01-19 20:30:00,
2013-01-19 14:35:00,64.6,35.6,29.96,WSW,239,2.0,9.0,34,0.00,,FEW047,0.00,VWS V14.01,2013-01-19 20:35:00,
2013-01-19 14:40:00,64.7,36.4,29.96,WSW,243,3.0,13.0,35,0.00,,FEW047,0.00,VWS V14.01,2013-01-19 20:40:00,
2013-01-19 14:45:00,64.8,36.5,29.96,WSW,250,11.0,13.0,35,0.00,,FEW047,0.00,VWS V14.01,2013-01-19 20:45:00,
2013-01-19 14:50:00,65.0,36.7,29.96,SW,227,2.0,13.0,35,0.00,,FEW047,0.00,VWS V14.01,2013-01-19 20:50:00,
2013-01-19 14:55:00,65.2,36.2,29.96,SSW,199,5.0,13.0,34,0.00,,FEW047,0.00,VWS V14.01,2013-01-19 20:55:00,
2013-01-19 15:00:00,64.0,33.6,29.96,WSW,251,4.0,13.0,32,0.00,,CLR,0.00,VWS V14.01,2013-01-19 21:00:00,
2013-01-19 15:01:00,65.3,36.2,29.95,SW,227,2.0,4.0,34,0.00,,FEW047,0.00,VWS V14.01,2013-01-19 21:01:00,
2013-01-19 15:06:00,65.2,35.4,29.96,West,271,5.0,12.0,33,0.00,,FEW047,0.00,VWS V14.01,2013-01-19 21:06:00,
2013-01-19 15:11:00,64.8,35.0,29.95,WSW,243,2.0,15.0,33,0.00,,FEW047,0.00,VWS V14.01,2013-01-19 21:11:00,
2013-01-19 15:17:00,64.7,35.0,29.95,West,272,6.0,15.0,33,0.00,,FEW047,0.00,VWS V14.01,2013-01-19 21:17:00,
2013-01-19 15:22:00,64.5,34.8,29.95,WSW,247,6.0,15.0,33,0.00,,FEW047,0.00,VWS V14.01,2013-01-19 21:22:00,
2013-01-19 15:27:00,64.5,34.8,29.95,WSW,245,5.0,15.0,33,0.00,,FEW047,0.00,VWS V14.01,2013-01-19 21:27:00,
2013-01-19 15:30:00,62.6,33.9,29.96,South,169,1.0,11.0,34,0.00,,CLR,0.00,VWS V14.01,2013-01-19 21:30:00,
2013-01-19 15:32:00,64.4,33.9,29.96,SSW,204,5.0,9.0,32,0.00,,FEW047,0.00,VWS V14.01,2013-01-19 21:32:00,
2013-01-19 15:38:00,64.4,33.9,29.95,SW,236,4.0,13.0,32,0.00,,FEW047,0.00,VWS V14.01,2013-01-19 21:38:00,
2013-01-19 15:43:00,64.4,34.7,29.95,West,281,4.0,13.0,33,0.00,,FEW047,0.00,VWS V14.01,2013-01-19 21:43:00,
2013-01-19 15:48:00,64.5,33.2,29.96,SW,219,4.0,13.0,31,0.00,,FEW047,0.00,VWS V14.01,2013-01-19 21:48:00,
2013-01-19 15:53:00,64.3,33.8,29.95,West,271,2.0,13.0,32,0.00,,FEW047,0.00,VWS V14.01,2013-01-19 21:53:00,
2013-01-19 15:59:00,64.0,32.8,29.95,WSW,248,5.0,13.0,31,0.00,,FEW047,0.00,VWS V14.01,2013-01-19 21:59:00,
2013-01-19 16:00:00,59.9,35.5,29.97,SSW,213,4.0,8.0,40,0.00,,CLR,0.00,VWS V14.01,2013-01-19 22:00:00,
2013-01-19 16:04:00,63.8,32.6,29.96,WSW,256,5.0,11.0,31,0.00,,FEW047,0.00,VWS V14.01,2013-01-19 22:04:00,
2013-01-19 16:09:00,63.4,33.8,29.96,SSW,207,6.0,11.0,33,0.00,,FEW047,0.00,VWS V14.01,2013-01-19 22:09:00,
2013-01-19 16:15:00,63.2,33.6,29.96,WSW,254,5.0,11.0,33,0.00,,FEW047,0.00,VWS V14.01,2013-01-19 22:15:00,
2013-01-19 16:20:00,63.1,34.3,29.96,SSW,213,0.0,11.0,34,0.00,,FEW047,0.00,VWS V14.01,2013-01-19 22:20:00,
2013-01-19 16:25:00,63.0,34.9,29.96,WSW,244,1.0,11.0,35,0.00,,FEW047,0.00,VWS V14.01,2013-01-19 22:25:00,
2013-01-19 16:30:00,62.6,34.6,29.96,South,169,0.0,1.0,35,0.00,,FEW047,0.00,VWS V14.01,2013-01-19 22:30:00,
2013-01-19 16:35:00,62.3,35.0,29.96,SW,226,1.0,3.0,36,0.00,,FEW047,0.00,VWS V14.01,2013-01-19 22:35:00,
2013-01-19 16:40:00,61.9,35.4,29.97,SSW,206,1.0,5.0,37,0.00,,FEW047,0.00,VWS V14.01,2013-01-19 22:40:00,
2013-01-19 16:46:00,61.3,35.5,29.97,SSW,209,1.0,7.0,38,0.00,,FEW047,0.00,VWS V14.01,2013-01-19 22:46:00,
2013-01-19 16:51:00,60.7,35.6,29.96,WSW,247,0.0,7.0,39,0.00,,FEW047,0.00,VWS V14.01,2013-01-19 22:51:00,
2013-01-19 16:56:00,60.3,35.3,29.97,SSW,202,1.0,8.0,39,0.00,,FEW047,0.00,VWS V14.01,2013-01-19 22:56:00,
2013-01-19 17:00:00,56.4,34.8,29.98,WSW,238,4.0,10.0,44,0.00,,CLR,0.00,VWS V14.01,2013-01-19 23:00:00,
2013-01-19 17:01:00,59.9,34.9,29.97,SSW,194,1.0,4.0,39,0.00,,FEW047,0.00,VWS V14.01,2013-01-19 23:01:00,
2013-01-19 17:06:00,59.5,35.2,29.97,SSW,200,1.0,6.0,40,0.00,,FEW047,0.00,VWS V14.01,2013-01-19 23:06:00,
2013-01-19 17:11:00,59.1,35.4,29.97,SW,234,4.0,6.0,41,0.00,,FEW047,0.00,VWS V14.01,2013-01-19 23:11:00,
2013-01-19 17:17:00,58.8,35.2,29.97,WSW,237,3.0,6.0,41,0.00,,FEW047,0.00,VWS V14.01,2013-01-19 23:17:00,
2013-01-19 17:22:00,58.4,35.4,29.97,SSE,161,1.0,6.0,42,0.00,,FEW047,0.00,VWS V14.01,2013-01-19 23:22:00,
2013-01-19 17:27:00,58.0,35.1,29.97,SSW,201,2.0,6.0,42,0.00,,FEW047,0.00,VWS V14.01,2013-01-19 23:27:00,
2013-01-19 17:30:00,55.1,34.7,29.98,SSW,198,3.0,7.0,46,0.00,,CLR,0.00,VWS V14.01,2013-01-19 23:30:00,
2013-01-19 17:32:00,57.7,34.8,29.97,SSW,201,0.0,6.0,42,0.00,,FEW047,0.00,VWS V14.01,2013-01-19 23:32:00,
2013-01-19 17:38:00,57.3,35.0,29.97,SW,221,1.0,6.0,43,0.00,,FEW047,0.00,VWS V14.01,2013-01-19 23:38:00,
2013-01-19 17:43:00,57.1,34.8,29.97,SSE,152,1.0,8.0,43,0.00,,FEW047,0.00,VWS V14.01,2013-01-19 23:43:00,
2013-01-19 17:48:00,56.9,34.7,29.97,South,178,3.0,9.0,43,0.00,,FEW047,0.00,VWS V14.01,2013-01-19 23:48:00,
2013-01-19 17:54:00,56.7,35.0,29.97,WSW,246,5.0,10.0,44,0.00,,FEW047,0.00,VWS V14.01,2013-01-19 23:54:00,
2013-01-19 18:00:00,56.4,34.8,29.98,WSW,238,4.0,10.0,44,0.00,,FEW047,0.00,VWS V14.01,2013-01-20 00:00:00,
2013-01-19 18:05:00,56.1,35.1,29.98,SSW,208,2.0,7.0,45,0.00,,FEW047,0.00,VWS V14.01,2013-01-20 00:05:00,
2013-01-19 18:10:00,55.8,34.8,29.98,SSW,192,2.0,7.0,45,0.00,,FEW047,0.00,VWS V14.01,2013-01-20 00:10:00,
2013-01-19 18:16:00,55.5,34.5,29.98,SW,224,0.0,7.0,45,0.00,,FEW047,0.00,VWS V14.01,2013-01-20 00:16:00,
2013-01-19 18:21:00,55.4,35.0,29.98,WSW,257,3.0,7.0,46,0.00,,FEW047,0.00,VWS V14.01,2013-01-20 00:21:00,
2013-01-19 18:27:00,55.2,34.8,29.98,WSW,247,1.0,7.0,46,0.00,,FEW047,0.00,VWS V14.01,2013-01-20 00:27:00,
2013-01-19 18:30:00,53.5,35.8,30.02,SSW,211,4.0,9.0,51,0.00,,CLR,0.00,VWS V14.01,2013-01-20 00:30:00,
2013-01-19 18:32:00,55.0,35.2,29.99,WSW,245,2.0,3.0,47,0.00,,FEW047,0.00,VWS V14.01,2013-01-20 00:32:00,
2013-01-19 18:37:00,54.8,35.0,29.99,West,267,0.0,4.0,47,0.00,,FEW047,0.00,VWS V14.01,2013-01-20 00:37:00,
2013-01-19 18:43:00,54.6,35.3,29.99,SW,234,0.0,7.0,48,0.00,,FEW047,0.00,VWS V14.01,2013-01-20 00:43:00,
2013-01-19 18:48:00,54.5,35.2,29.99,West,275,5.0,7.0,48,0.00,,FEW047,0.00,VWS V14.01,2013-01-20 00:48:00,
2013-01-19 18:53:00,54.4,35.7,30.00,WSW,246,2.0,7.0,49,0.00,,FEW047,0.00,VWS V14.01,2013-01-20 00:53:00,
2013-01-19 18:58:00,54.2,35.5,30.00,WSW,240,4.0,8.0,49,0.00,,FEW047,0.00,VWS V14.01,2013-01-20 00:58:00,
2013-01-19 19:00:00,51.9,35.8,30.03,West,273,3.0,11.0,54,0.00,,CLR,0.00,VWS V14.01,2013-01-20 01:00:00,
2013-01-19 19:03:00,54.0,35.8,30.00,WSW,246,2.0,9.0,50,0.00,,FEW047,0.00,VWS V14.01,2013-01-20 01:03:00,
2013-01-19 19:08:00,53.9,35.7,30.01,WSW,238,4.0,9.0,50,0.00,,FEW047,0.00,VWS V14.01,2013-01-20 01:08:00,
2013-01-19 19:14:00,53.7,36.0,30.01,SW,221,1.0,9.0,51,0.00,,FEW047,0.00,VWS V14.01,2013-01-20 01:14:00,
2013-01-19 19:20:00,53.6,35.9,30.01,West,274,2.0,9.0,51,0.00,,FEW047,0.00,VWS V14.01,2013-01-20 01:20:00,
2013-01-19 19:25:00,53.5,36.3,30.02,SW,227,5.0,9.0,52,0.00,,FEW047,0.00,VWS V14.01,2013-01-20 01:25:00,
2013-01-19 19:30:00,53.6,35.9,30.02,SW,221,4.0,9.0,51,0.00,,FEW047,0.00,VWS V14.01,2013-01-20 01:30:00,
2013-01-19 19:35:00,53.4,36.2,30.02,SSW,192,0.0,11.0,52,0.00,,FEW047,0.00,VWS V14.01,2013-01-20 01:35:00,
2013-01-19 19:40:00,53.2,36.0,30.02,WSW,245,2.0,11.0,52,0.00,,FEW047,0.00,VWS V14.01,2013-01-20 01:40:00,
2013-01-19 19:45:00,52.9,36.2,30.02,SW,215,4.0,11.0,53,0.00,,FEW047,0.00,VWS V14.01,2013-01-20 01:45:00,
2013-01-19 19:51:00,52.6,36.0,30.03,West,265,1.0,11.0,53,0.00,,FEW047,0.00,VWS V14.01,2013-01-20 01:51:00,
2013-01-19 19:56:00,52.3,36.2,30.03,West,261,1.0,11.0,54,0.00,,FEW047,0.00,VWS V14.01,2013-01-20 01:56:00,
2013-01-19 20:00:00,49.5,36.6,30.04,SW,235,5.0,7.0,61,0.00,,CLR,0.00,VWS V14.01,2013-01-20 02:00:00,
2013-01-19 20:01:00,51.9,35.8,30.03,WSW,243,0.0,3.0,54,0.00,,FEW047,0.00,VWS V14.01,2013-01-20 02:01:00,
2013-01-19 20:07:00,51.5,35.9,30.03,SW,234,5.0,5.0,55,0.00,,FEW047,0.00,VWS V14.01,2013-01-20 02:07:00,
2013-01-19 20:12:00,51.3,36.2,30.04,WSW,241,0.0,7.0,56,0.00,,FEW047,0.00,VWS V14.01,2013-01-20 02:12:00,
2013-01-19 20:17:00,51.0,36.3,30.04,WSW,255,0.0,7.0,57,0.00,,FEW047,0.00,VWS V14.01,2013-01-20 02:17:00,
2013-01-19 20:22:00,50.6,35.9,30.04,WSW,244,0.0,7.0,57,0.00,,FEW047,0.00,VWS V14.01,2013-01-20 02:22:00,
2013-01-19 20:28:00,50.2,36.0,30.04,SW,227,3.0,7.0,58,0.00,,FEW047,0.00,VWS V14.01,2013-01-20 02:28:00,
2013-01-19 20:30:00,49.3,36.4,30.05,SSW,212,1.0,7.0,61,0.00,,CLR,0.00,VWS V14.01,2013-01-20 02:30:00,
2013-01-19 20:33:00,49.9,36.2,30.04,SW,232,0.0,2.0,59,0.00,,FEW047,0.00,VWS V14.01,2013-01-20 02:33:00,
2013-01-19 20:38:00,49.6,36.3,30.04,WSW,255,2.0,3.0,60,0.00,,FEW047,0.00,VWS V14.01,2013-01-20 02:38:00,
2013-01-19 20:43:00,49.2,35.9,30.04,SW,221,1.0,5.0,60,0.00,,FEW047,0.00,VWS V14.01,2013-01-20 02:43:00,
2013-01-19 20:48:00,48.8,36.4,30.04,SW,215,4.0,6.0,62,0.00,,FEW047,0.00,VWS V14.01,2013-01-20 02:48:00,
2013-01-19 20:53:00,49.2,36.8,30.04,SW,222,5.0,7.0,62,0.00,,FEW047,0.00,VWS V14.01,2013-01-20 02:53:00,
2013-01-19 20:58:00,49.4,36.5,30.04,SW,236,2.0,7.0,61,0.00,,FEW047,0.00,VWS V14.01,2013-01-20 02:58:00,
2013-01-19 21:00:00,47.0,35.9,30.05,WSW,254,0.0,4.0,65,0.00,,CLR,0.00,VWS V14.01,2013-01-20 03:00:00,
2013-01-19 21:03:00,49.7,36.8,30.05,SW,225,2.0,6.0,61,0.00,,FEW047,0.00,VWS V14.01,2013-01-20 03:03:00,
2013-01-19 21:08:00,49.8,36.9,30.05,WSW,241,2.0,7.0,61,0.00,,FEW047,0.00,VWS V14.01,2013-01-20 03:08:00,
2013-01-19 21:14:00,49.9,36.6,30.05,SW,234,1.0,7.0,60,0.00,,FEW047,0.00,VWS V14.01,2013-01-20 03:14:00,
2013-01-19 21:19:00,49.7,36.4,30.05,SW,217,4.0,7.0,60,0.00,,FEW047,0.00,VWS V14.01,2013-01-20 03:19:00,
2013-01-19 21:24:00,49.7,36.8,30.05,SSW,213,3.0,7.0,61,0.00,,FEW047,0.00,VWS V14.01,2013-01-20 03:24:00,
2013-01-19 21:29:00,49.4,36.5,30.05,SSW,212,0.0,7.0,61,0.00,,FEW047,0.00,VWS V14.01,2013-01-20 03:29:00,
2013-01-19 21:30:00,47.9,36.3,30.06,WSW,249,0.0,4.0,64,0.00,,CLR,0.00,VWS V14.01,2013-01-20 03:30:00,
2013-01-19 21:34:00,49.0,36.2,30.05,SSW,205,0.0,2.0,61,0.00,,FEW047,0.00,VWS V14.01,2013-01-20 03:34:00,
2013-01-19 21:39:00,48.6,36.2,30.05,SSW,213,0.0,2.0,62,0.00,,FEW047,0.00,VWS V14.01,2013-01-20 03:39:00,
2013-01-19 21:44:00,48.2,36.2,30.05,West,280,0.0,4.0,63,0.00,,FEW047,0.00,VWS V14.01,2013-01-20 03:44:00,
2013-01-19 21:50:00,47.8,36.2,30.05,SW,229,0.0,4.0,64,0.00,,FEW047,0.00,VWS V14.01,2013-01-20 03:50:00,
2013-01-19 21:55:00,47.4,36.2,30.05,West,260,1.0,4.0,65,0.00,,FEW047,0.00,VWS V14.01,2013-01-20 03:55:00,
2013-01-19 22:00:00,47.0,35.9,30.05,WSW,254,0.0,0.0,65,0.00,,FEW047,0.00,VWS V14.01,2013-01-20 04:00:00,
2013-01-19 22:05:00,46.8,36.0,30.05,WSW,250,1.0,4.0,66,0.00,,FEW047,0.00,VWS V14.01,2013-01-20 04:05:00,
2013-01-19 22:10:00,46.8,36.0,30.06,WNW,300,0.0,4.0,66,0.00,,FEW047,0.00,VWS V14.01,2013-01-20 04:10:00,
2013-01-19 22:15:00,47.0,36.2,30.06,West,275,1.0,4.0,66,0.00,,FEW047,0.00,VWS V14.01,2013-01-20 04:15:00,
2013-01-19 22:21:00,47.3,36.2,30.06,West,274,1.0,4.0,65,0.00,,FEW047,0.00,VWS V14.01,2013-01-20 04:21:00,
2013-01-19 22:26:00,47.7,36.1,30.05,West,273,2.0,4.0,64,0.00,,FEW047,0.00,VWS V14.01,2013-01-20 04:26:00,
2013-01-19 22:30:00,46.5,35.8,30.06,West,277,2.0,5.0,66,0.00,,CLR,0.00,VWS V14.01,2013-01-20 04:30:00,
2013-01-19 22:31:00,48.0,36.4,30.06,West,271,0.0,2.0,64,0.00,,FEW047,0.00,VWS V14.01,2013-01-20 04:31:00,
2013-01-19 22:36:00,48.0,36.0,30.05,West,268,1.0,3.0,63,0.00,,FEW047,0.00,VWS V14.01,2013-01-20 04:36:00,
2013-01-19 22:41:00,48.0,36.0,30.05,West,267,0.0,3.0,63,0.00,,FEW047,0.00,VWS V14.01,2013-01-20 04:41:00,
2013-01-19 22:46:00,47.7,36.1,30.06,WSW,242,0.0,3.0,64,0.00,,FEW047,0.00,VWS V14.01,2013-01-20 04:46:00,
2013-01-19 22:51:00,47.4,35.8,30.05,WSW,242,0.0,3.0,64,0.00,,FEW047,0.00,VWS V14.01,2013-01-20 04:51:00,
2013-01-19 22:56:00,47.1,35.6,30.06,WSW,242,0.0,3.0,64,0.00,,FEW047,0.00,VWS V14.01,2013-01-20 04:56:00,
2013-01-19 23:00:00,46.9,35.8,30.06,West,280,1.0,1.0,65,0.00,,FEW047,0.00,VWS V14.01,2013-01-20 05:00:00,
2013-01-19 23:02:00,46.8,35.7,30.06,West,280,0.0,1.0,65,0.00,,FEW047,0.00,VWS V14.01,2013-01-20 05:02:00,
2013-01-19 23:03:00,46.8,35.7,30.06,West,265,0.0,1.0,65,0.00,,FEW047,0.00,VWS V14.01,2013-01-20 05:03:00,
2013-01-19 23:04:00,46.7,35.6,30.06,West,273,1.0,2.0,65,0.00,,FEW047,0.00,VWS V14.01,2013-01-20 05:04:00,
2013-01-19 23:09:00,46.6,35.9,30.06,West,281,1.0,5.0,66,0.00,,FEW047,0.00,VWS V14.01,2013-01-20 05:09:00,
2013-01-19 23:15:00,46.7,36.0,30.06,West,276,0.0,5.0,66,0.00,,FEW047,0.00,VWS V14.01,2013-01-20 05:15:00,
2013-01-19 23:20:00,46.7,36.0,30.06,West,263,2.0,5.0,66,0.00,,FEW047,0.00,VWS V14.01,2013-01-20 05:20:00,
2013-01-19 23:25:00,46.7,36.0,30.06,West,279,2.0,5.0,66,0.00,,FEW047,0.00,VWS V14.01,2013-01-20 05:25:00,
2013-01-19 23:30:00,46.5,35.8,30.06,WNW,301,2.0,2.0,66,0.00,,FEW047,0.00,VWS V14.01,2013-01-20 05:30:00,
2013-01-19 23:35:00,46.4,35.7,30.06,West,272,2.0,3.0,66,0.00,,FEW047,0.00,VWS V14.01,2013-01-20 05:35:00,
2013-01-19 23:40:00,46.2,35.9,30.06,West,267,1.0,3.0,67,0.00,,FEW047,0.00,VWS V14.01,2013-01-20 05:40:00,
2013-01-19 23:45:00,46.1,35.8,30.06,West,275,1.0,4.0,67,0.00,,FEW047,0.00,VWS V14.01,2013-01-20 05:45:00,
2013-01-19 23:51:00,46.0,35.7,30.06,WNW,297,1.0,4.0,67,0.00,,FEW047,0.00,VWS V14.01,2013-01-20 05:51:00,
2013-01-19 23:56:00,45.9,35.6,30.06,West,280,1.0,4.0,67,0.00,,FEW047,0.00,VWS V14.01,2013-01-20 05:56:00,